Flag for U.S.A. Weather past 2 weeks in Sacramento, California, U.S.A.

Now
69 °F

Clear.


Feels Like: 69 °F
Forecast: 62 / 91 °F
Wind: 5 mph from North

Location: Sacramento Executive Airport

Current Time: Jul 5, 2015 at 12:11:38 AM

Latest Report: Jul 4, 2015 at 10:53 PM


Visibility: 10 mi

Pressure: 29.78 "Hg

Humidity: 66%

Dew point: 57 °F

Location of SacramentoLocation

Historic Weather in Sacramento — Graph

°F

Sacramento temperature yesterday

Maximum temperature yesterday: 99 °F (at 3:53 PM)
Minimum temperature yesterday: 63 °F (at 5:53 AM)
Average temperature yesterday: 78 °F

Past Weeks' High & Low Weather Summary

 TemperatureHumidityPressure
High107 °F (Jun 30, 4:53 PM)84% (Jun 21, 5:53 AM)30.01 "Hg (Jun 21, 5:53 AM)
Low56 °F (Jun 21, 5:53 AM)13% (Jun 20, 5:53 PM)29.70 "Hg (Jul 4, 5:53 PM)
Average77 °F46%29.86 "Hg
* Reported Jun 19 10:53 PM — Jul 4 10:53 PM, Sacramento, Weather by CustomWeather, © 2015

Note: Actual official high and low records may vary slightly from our data, if they occured in-between our weather recording intervals... More about our weather records

Advertising

Sacramento weather history for previous 24 hours

 ConditionsComfort  
Time TempWeatherWind HumidityBarometerVisibility
10:53 PM
Sat, Jul 4
69 °FClear.5 mph66%29.78 "Hg10 mi
9:53 PM72 °FClear.7 mph57%29.76 "Hg10 mi
8:53 PM74 °FSunny.10 mph56%29.74 "Hg10 mi
7:53 PM80 °FSunny.10 mph47%29.72 "Hg10 mi
6:53 PM86 °FSunny.14 mph40%29.70 "Hg10 mi
5:53 PM94 °FSunny.12 mph35%29.70 "Hg10 mi
4:53 PM97 °FSunny.12 mph30%29.71 "Hg10 mi
3:53 PM99 °FSunny.13 mph27%29.72 "Hg10 mi
2:53 PM98 °FSunny.12 mph29%29.73 "Hg10 mi
1:53 PM95 °FSunny.3 mph30%29.76 "Hg10 mi
12:53 PM91 °FSunny.8 mph38%29.78 "Hg10 mi
11:53 AM86 °FSunny.7 mph43%29.79 "Hg10 mi
10:53 AM80 °FSunny.6 mph51%29.80 "Hg10 mi
9:53 AM75 °FSunny.5 mph58%29.82 "Hg10 mi
8:53 AM71 °FSunny.3 mph66%29.83 "Hg10 mi
7:53 AM67 °FSunny.7 mph73%29.82 "Hg10 mi
6:53 AM64 °FSunny.6 mph78%29.81 "Hg10 mi
5:53 AM63 °FClear.3 mph84%29.81 "Hg10 mi
4:53 AM64 °FClear.7 mph81%29.80 "Hg10 mi
3:53 AM65 °FClear.8 mph78%29.80 "Hg10 mi
2:53 AM67 °FClear.3 mph73%29.80 "Hg10 mi
1:53 AM68 °FClear.3 mph68%29.80 "Hg10 mi
12:53 AM69 °FClear.3 mph66%29.81 "Hg10 mi
Weather by CustomWeather, © 2015

See weather overviewHow to use our weather pages